Wind_Speed
12 12 12 12 13 12 11 12 14 16 17 19 19 19 19 18 18 18 18 17 16 14 12 9 6 4 3 4 6 6 6 4 4 4 3 3 3 3 3 3 2 2 2 2 2 2 2 2 3 3 3 3 3 3 3 3 3 3 3 4 3 4 4 4 4 5 5 5 4 4 4 5 5 5 5 5 6 7 7 8 8 8 8 8 9
12 12 12 12 12 11 10 11 13 15 17 19 20 19 18 18 18 17 17 15 15 14 12 10 6 4 2 3 6 6 6 5 3 3 2 2 3 3 3 2 2 1 1 1 2 3 3 3 4 4 4 3 3 3 4 3 3 4 4 4 4 4 4 4 4 5 5 5 4 4 4 5 5 6 6 6 6 7 7 8 8 9 9 9 9
13 12 12 11 11 11 11 12 14 16 18 20 20 20 19 19 18 18 16 15 14 13 12 10 7 4 4 5 6 6 5 4 2 1 1 1 2 2 2 2 2 1 1 2 4 4 4 4 4 4 4 4 4 4 4 4 3 4 4 4 4 4 4 4 4 5 5 5 5 5 5 5 6 6 7 7 7 8 8 8 9 9 9 10 10
13 13 12 11 11 11 11 13 14 16 18 20 21 20 20 20 19 18 16 15 13 12 10 9 6 5 5 6 7 6 4 2 1 1 0 1 1 2 2 2 2 2 3 4 5 5 6 6 5 4 4 4 4 4 4 4 4 4 4 4 4 4 5 5 5 5 5 5 5 6 6 7 7 7 8 8 8 9 9 9 9 10 11 11 11
13 13 12 11 11 12 12 13 15 16 17 19 20 20 19 19 19 17 16 15 13 12 10 8 8 6 5 7 8 7 4 3 2 1 1 1 1 1 1 1 2 3 4 4 3 5 6 6 6 5 4 5 5 5 5 5 5 5 5 5 5 6 6 6 6 5 5 6 6 7 8 8 8 9 9 9 9 9 9 10 11 11 11 12 12
13 13 13 12 12 14 14 14 15 14 14 17 18 18 18 17 16 15 14 14 12 11 9 9 9 8 6 7 8 6 4 4 3 2 2 1 1 1 2 2 2 4 5 4 3 4 4 5 6 5 6 7 7 7 7 7 7 7 7 7 8 7 7 7 7 7 7 7 8 8 9 9 9 9 9 9 9 10 10 11 12 12 13 13 13
14 14 14 13 14 15 15 14 13 13 13 14 15 15 15 15 13 13 12 11 11 10 9 9 9 8 7 7 7 5 4 4 4 3 4 2 1 2 3 2 2 3 4 5 4 4 3 5 7 7 8 10 11 11 11 11 10 11 11 11 10 10 9 9 8 8 8 9 9 9 9 9 9 9 10 10 10 11 11 12 13 13 14 14 14
14 15 15 14 15 15 14 13 12 11 11 12 12 13 13 13 12 11 10 10 11 10 9 9 8 8 7 7 6 5 5 5 5 4 4 3 2 3 3 2 2 2 3 4 4 4 4 6 8 8 10 11 12 13 13 13 12 12 12 12 11 10 10 9 9 9 9 9 9 9 9 9 9 9 10 10 11 11 12 12 13 13 13 14 14
15 16 15 15 16 14 13 12 12 10 10 10 11 12 12 12 12 12 11 10 10 9 9 8 8 8 7 6 6 6 6 5 5 5 4 3 3 4 3 2 2 3 3 3 3 4 5 7 7 7 8 9 10 11 11 11 10 10 10 9 9 9 9 9 9 8 8 9 9 9 9 9 9 9 10 10 11 11 12 12 13 13 13 13 13
16 16 16 16 15 14 13 13 13 11 11 11 12 13 13 13 12 13 12 10 9 9 8 8 8 8 7 7 6 7 6 6 5 4 4 3 3 3 3 4 4 4 3 3 4 4 5 7 7 6 5 5 6 7 7 7 7 6 6 6 7 7 8 8 7 8 8 8 8 8 8 9 9 9 9 10 11 11 12 12 12 12 12 12 12
17 17 17 17 16 15 14 14 14 13 12 12 13 14 15 14 13 14 13 11 9 8 8 8 9 9 8 7 7 6 6 6 6 5 5 4 4 4 4 5 5 4 3 3 4 4 5 6 7 6 4 3 3 3 4 3 3 2 3 4 5 5 6 7 6 6 7 8 8 7 7 8 9 9 9 9 10 10 10 10 10 10 10 10 10
18 18 17 18 18 17 15 15 16 15 14 14 14 14 14 14 14 14 14 13 11 9 8 9 10 10 9 8 7 7 7 7 6 6 6 5 5 5 5 6 5 4 4 2 3 4 5 6 7 6 4 2 2 2 2 2 2 2 1 2 2 2 4 6 6 6 6 7 7 7 7 8 9 8 9 9 8 8 8 8 8 9 10 10 10
17 17 18 19 19 18 16 15 16 15 15 14 13 14 14 14 14 14 13 12 12 11 9 10 11 11 10 9 8 8 8 7 7 6 7 7 6 5 6 7 5 4 4 2 2 4 5 6 6 5 4 3 2 2 2 1 2 4 4 3 2 2 2 3 4 5 5 5 6 6 6 7 8 8 8 8 7 6 6 6 7 8 10 10 10
16 16 18 19 19 18 16 16 16 15 15 15 14 15 15 14 15 15 13 11 10 10 10 11 12 12 11 11 10 10 9 8 8 8 8 8 7 5 6 7 6 5 6 4 3 3 4 5 5 5 4 4 3 2 1 1 2 3 3 3 4 4 4 2 2 3 4 4 4 4 4 5 6 6 6 6 5 5 5 5 6 7 8 9 9
16 16 17 18 18 17 15 16 16 16 16 16 16 15 16 15 15 15 13 12 10 10 11 12 12 12 11 11 10 10 9 9 9 9 9 8 7 6 6 7 7 7 8 6 4 4 4 4 5 5 5 4 4 2 2 2 2 2 2 4 5 5 4 2 1 2 2 3 3 3 3 3 3 3 4 3 3 4 5 4 6 7 7 7 7
17 17 17 16 16 17 16 15 15 16 17 17 16 16 16 15 15 15 13 13 12 11 12 12 12 11 11 10 10 10 9 9 10 10 9 8 8 7 6 7 8 8 8 7 6 5 4 4 4 5 5 4 4 3 3 3 2 2 2 3 4 5 5 4 2 2 1 2 2 2 1 2 2 2 2 2 3 3 4 4 6 7 7 6 6
16 16 16 15 15 16 17 15 14 16 17 17 16 16 17 16 15 15 13 11 11 11 13 14 12 11 10 8 8 8 9 11 11 8 8 7 8 8 8 9 9 8 8 7 7 6 5 4 4 5 4 4 4 4 3 3 3 3 3 3 3 4 5 5 3 3 2 0 1 1 1 2 3 2 1 2 2 3 4 5 5 5 6 6 6
16 16 16 15 15 15 17 16 15 16 17 16 16 17 18 17 15 14 13 11 9 11 13 15 14 12 11 9 6 5 7 10 11 8 7 7 8 8 9 10 9 8 8 7 7 6 5 5 4 4 4 4 4 3 3 3 3 3 3 2 2 2 3 4 4 4 3 1 2 1 2 3 2 2 2 3 4 5 5 4 3 4 5 5 5
17 17 17 16 15 15 16 16 15 15 16 17 17 18 18 16 14 13 12 11 10 11 12 14 16 15 13 12 10 6 4 5 10 9 8 9 9 8 9 10 10 9 8 7 7 7 6 5 4 4 4 4 4 3 3 2 2 2 1 1 2 2 3 5 6 5 3 2 3 4 5 5 4 4 4 4 4 4 3 3 3 3 4 4 4
17 18 18 17 16 15 16 16 16 16 17 18 18 18 16 14 14 13 12 12 11 11 11 13 16 15 15 15 13 10 6 5 7 9 8 11 12 10 10 10 10 9 9 8 8 7 6 5 4 3 4 4 4 3 2 2 1 1 3 4 3 3 4 5 5 4 4 5 7 7 7 7 7 6 5 4 3 2 2 2 2 2 3 3 3
17 18 18 18 17 16 17 17 17 17 17 18 19 17 15 15 15 14 12 12 12 11 11 13 14 13 14 15 14 13 10 7 8 11 10 10 14 14 14 12 11 10 10 10 9 8 7 5 4 4 4 4 4 4 3 3 3 3 5 5 5 5 5 5 5 4 4 6 8 7 7 7 7 6 5 3 2 1 1 1 2 2 3 3 4
18 19 18 18 18 17 17 17 18 18 18 19 19 17 15 15 14 13 12 12 12 12 12 12 14 13 13 14 14 13 11 10 11 14 12 11 14 15 16 16 14 12 11 10 9 9 7 5 4 5 4 3 5 5 4 4 4 4 5 6 7 6 6 6 5 5 4 5 5 5 5 5 5 4 4 2 1 0 1 2 2 3 4 5 5
18 19 18 18 18 17 17 18 19 19 18 18 18 17 16 14 13 13 13 13 12 12 12 13 14 14 14 13 12 12 11 11 12 12 13 13 13 14 17 16 14 12 11 10 9 8 7 6 6 5 3 4 5 5 5 5 4 4 5 6 6 6 6 5 5 4 3 3 3 3 3 3 3 3 2 2 1 1 1 2 3 4 5 6 6
18 19 19 19 19 18 17 18 19 19 17 17 16 16 16 16 15 15 15 14 14 13 13 14 14 14 15 14 12 12 11 12 12 11 11 11 12 13 16 16 13 11 11 11 11 9 8 8 6 5 4 4 5 6 6 5 4 4 5 5 5 5 4 4 3 3 2 2 1 1 2 2 2 2 2 1 1 2 2 3 4 5 5 6 6
19 20 20 20 20 19 19 19 19 19 17 16 16 16 17 17 16 17 16 16 15 15 14 14 13 14 14 14 13 12 11 11 12 11 10 10 11 13 16 15 13 13 13 12 12 11 10 8 6 5 5 5 6 7 6 5 4 4 5 4 4 4 3 2 2 1 1 1 1 1 2 2 2 3 3 3 3 3 3 4 4 4 4 5 5
19 20 20 20 20 20 19 18 18 18 17 17 16 16 17 16 16 16 16 16 15 15 14 14 13 13 14 14 13 12 11 12 13 11 10 11 11 13 16 16 14 14 13 13 13 12 11 10 8 7 6 7 7 7 6 5 4 5 5 3 3 2 2 2 2 2 2 1 1 2 2 3 3 3 3 3 3 3 3 3 3 3 4 4 5
20 20 20 19 19 19 18 17 17 17 17 17 17 17 17 16 16 16 15 15 15 15 14 14 14 13 13 13 13 13 12 12 13 11 10 10 9 12 17 16 15 15 14 13 13 13 10 9 9 8 8 8 9 9 7 5 5 5 4 3 2 0 3 3 3 2 2 2 2 3 3 4 4 3 3 3 2 2 2 2 3 3 4 5 5
21 21 19 17 17 18 18 17 17 17 17 17 17 17 17 16 16 16 15 16 16 15 15 15 14 13 12 13 13 13 12 13 13 11 10 10 9 11 15 15 13 14 16 15 14 14 11 7 7 8 8 9 9 9 7 5 5 5 4 3 1 2 3 3 3 2 3 3 3 3 3 3 3 3 3 2 2 2 2 3 3 4 4 5 6
22 20 18 16 17 18 18 18 17 17 17 17 17 16 16 16 16 16 16 16 16 16 16 15 15 14 13 13 13 13 13 13 13 11 11 11 9 10 14 16 12 9 13 18 17 14 11 7 7 7 7 8 9 7 6 5 5 5 4 3 3 4 3 3 4 4 3 3 3 3 3 3 3 3 2 2 2 2 3 3 4 5 5 6 6
20 18 16 16 17 19 19 19 18 17 16 17 16 16 16 16 16 16 16 16 17 17 17 16 16 15 14 14 14 14 14 14 12 12 12 11 10 11 13 16 15 9 6 11 16 13 10 8 8 7 4 4 6 7 6 5 6 5 5 4 5 5 4 4 5 5 4 4 4 4 4 4 3 2 1 1 2 2 3 4 4 5 6 6 7
19 17 17 17 18 18 18 18 18 18 17 17 16 16 16 16 16 16 16 16 17 17 17 16 15 15 15 14 15 14 14 14 13 13 13 12 10 12 13 15 16 10 3 3 10 10 9 8 7 6 3 2 6 7 7 7 7 6 6 6 6 6 5 6 6 6 6 5 5 5 5 4 3 1 0 1 2 3 3 4 5 5 6 6 7
20 18 17 18 18 17 18 18 18 18 18 18 17 16 16 16 15 15 16 17 17 17 16 15 15 15 15 15 14 14 14 14 14 13 12 12 11 12 13 14 16 12 3 3 6 6 8 8 6 4 3 3 6 8 8 8 8 8 7 7 7 6 6 7 7 7 7 6 6 5 5 5 4 3 2 2 2 3 4 4 5 5 6 6 7
22 19 18 19 18 18 18 18 18 19 19 19 18 17 16 16 16 16 16 17 16 16 15 15 15 15 15 15 14 14 15 15 15 13 12 13 12 11 12 14 16 12 6 4 4 4 7 8 7 7 6 4 5 7 9 9 9 8 8 7 7 7 7 7 7 8 8 7 6 6 6 6 6 5 4 4 3 4 4 5 6 6 7 7 8
21 18 18 20 19 19 19 18 18 18 19 19 19 18 17 17 16 16 17 17 16 15 15 15 15 16 15 14 14 14 16 16 15 15 14 14 14 12 12 14 15 12 9 7 6 6 7 7 7 7 7 6 5 5 7 8 8 8 7 7 7 7 7 7 7 8 8 7 7 7 8 7 7 6 6 5 5 4 5 5 6 7 7 8 9
20 19 20 21 20 20 19 18 18 18 19 19 19 18 18 17 17 17 17 16 15 15 15 14 15 16 15 15 15 15 16 17 17 16 16 16 15 14 13 13 13 13 12 10 10 10 10 9 7 6 6 7 5 4 5 7 8 8 7 7 7 7 8 8 8 8 8 8 7 8 8 8 8 7 7 6 6 6 6 7 7 8 9 10 11
20 20 21 21 20 20 19 18 18 19 19 19 19 19 19 17 17 16 15 15 15 13 13 13 14 15 16 16 16 15 16 18 17 16 16 16 16 15 14 14 14 14 14 14 15 15 14 13 10 7 6 6 6 5 5 7 9 8 8 7 7 7 7 8 8 9 9 8 8 8 8 8 8 9 9 9 9 9 9 9 10 10 11 12 13
22 21 21 21 20 20 19 18 19 20 19 18 18 18 18 17 16 16 14 14 12 10 10 11 12 14 15 16 16 16 17 17 16 15 15 15 16 15 14 14 14 14 15 18 19 19 17 15 12 9 7 8 8 7 6 7 9 9 9 9 9 9 9 9 9 9 10 10 10 9 9 10 10 11 11 12 12 12 12 12 12 13 14 14 15
23 21 22 22 22 21 18 18 20 20 19 18 18 17 17 17 16 15 14 12 10 8 7 9 11 13 15 17 18 17 16 16 15 13 12 12 14 14 14 13 12 12 14 16 18 19 17 15 12 9 8 8 8 8 7 7 9 10 11 11 12 11 12 12 12 12 12 12 12 12 12 12 13 14 14 15 16 16 16 16 17 17 17 18 19
24 22 23 23 23 20 19 20 22 20 20 20 18 17 17 16 15 14 14 12 9 7 7 9 11 13 16 19 19 18 17 15 13 11 10 10 12 13 12 12 11 10 10 10 11 14 16 15 11 8 7 7 7 9 9 10 11 12 13 15 15 14 14 15 15 15 15 16 16 16 17 17 17 18 18 19 19 19 19 19 20 20 21 22 22
25 23 24 24 23 21 22 24 24 22 21 21 19 17 16 15 14 14 15 12 10 8 8 9 10 11 14 16 16 16 16 14 11 10 9 10 12 12 12 11 11 9 8 8 10 13 14 14 11 8 7 7 8 9 10 12 13 14 14 16 16 15 16 18 18 17 18 19 19 20 21 22 22 22 22 23 23 23 23 23 24 24 25 25 26
27 24 25 24 22 22 26 27 25 24 23 22 20 18 16 15 15 15 15 13 11 9 9 10 11 11 11 12 13 14 14 13 10 9 8 7 9 10 10 10 9 8 8 8 10 12 13 13 12 11 10 9 8 10 11 12 13 15 15 17 19 18 18 21 21 19 19 19 20 21 22 23 24 25 26 27 27 26 27 27 27 28 28 28 29
29 27 25 23 21 23 27 28 27 26 24 23 21 19 17 17 16 16 15 13 12 11 9 10 11 12 12 12 12 14 14 13 12 10 8 7 7 7 9 10 8 8 9 10 11 11 12 13 13 13 13 12 11 12 14 14 15 17 18 20 22 21 21 23 23 20 19 20 22 24 23 23 25 26 27 28 28 28 30 31 31 31 31 32 33
31 29 26 24 22 23 27 29 28 27 25 23 21 20 20 19 18 16 15 14 13 12 10 9 10 13 15 14 14 15 15 14 13 11 9 8 8 8 9 9 9 8 9 10 11 12 12 13 14 14 14 13 12 13 15 15 16 18 19 20 22 22 21 22 22 22 21 22 24 26 26 25 26 27 27 27 28 29 31 31 32 32 33 34 34
32 29 27 26 24 23 26 28 27 26 25 23 20 19 19 20 20 18 16 15 15 13 10 10 12 14 15 15 14 15 15 14 12 11 10 9 9 9 10 10 9 8 8 9 9 10 11 11 12 13 12 11 11 12 13 14 15 15 16 16 18 19 19 19 21 22 22 22 25 28 28 27 27 29 28 27 27 28 30 31 31 33 33 32 31
33 30 28 27 25 24 25 26 24 24 24 22 19 16 16 18 21 19 17 17 17 14 11 11 13 14 14 14 15 15 14 13 12 11 10 9 9 10 10 11 11 10 10 9 9 9 9 9 9 10 11 11 12 13 14 15 16 16 17 18 19 20 21 22 23 23 22 23 25 28 29 28 27 30 29 26 25 26 27 29 31 32 32 30 28
33 31 29 29 26 24 26 26 23 23 23 21 20 16 14 16 19 19 17 18 18 16 15 14 14 14 14 14 15 15 14 13 11 10 9 9 9 9 8 9 10 10 11 11 10 10 10 10 11 11 12 13 13 15 16 17 18 19 20 21 22 23 25 25 26 25 24 24 25 28 31 28 27 29 30 26 24 23 23 24 25 26 25 24 24
33 31 30 29 28 26 26 26 23 22 21 21 21 18 15 15 18 18 17 18 19 19 18 17 17 16 15 15 15 14 13 12 11 10 9 8 9 8 8 7 8 8 8 9 9 10 11 12 13 14 15 15 16 17 18 20 21 22 23 23 24 25 26 27 27 26 24 23 24 27 29 26 24 26 27 24 22 23 22 22 21 20 20 20 21
34 34 32 30 28 27 27 26 25 23 22 22 22 20 17 16 17 18 18 18 20 20 19 19 20 18 18 17 16 15 14 14 13 12 10 8 8 8 7 6 6 6 6 7 8 10 12 14 15 17 18 19 20 21 22 23 23 24 25 25 24 24 25 25 25 24 22 21 21 22 26 25 24 26 26 23 22 23 22 22 22 21 21 22 22
34 34 34 30 28 27 26 26 25 24 23 24 23 22 19 16 17 19 19 18 19 19 19 20 20 20 19 18 16 15 15 14 14 14 12 10 8 8 7 7 7 8 9 10 11 13 15 17 18 20 20 21 22 23 23 24 24 23 23 23 22 22 23 24 25 24 23 22 22 23 26 26 25 24 24 23 23 22 21 21 21 21 22 23 24
33 31 31 29 27 26 26 26 26 25 25 24 23 22 21 17 17 19 19 19 19 19 20 21 21 21 20 18 16 15 14 13 14 14 12 11 11 11 11 12 13 13 13 14 15 17 18 19 20 21 22 22 22 22 22 23 23 23 22 22 22 23 24 24 25 25 24 23 23 24 23 23 22 21 21 22 23 23 21 20 21 22 23 25 26
30 28 28 28 28 28 27 27 26 25 25 24 23 21 20 18 17 18 19 19 20 21 22 23 22 19 18 16 15 14 12 11 12 13 12 13 15 15 16 16 17 17 16 17 19 21 21 21 21 20 20 20 20 21 22 22 22 22 22 21 21 22 22 22 22 22 22 20 19 20 20 20 20 21 21 21 22 22 21 20 21 22 23 24 24
Wind_Direction
180 171 166 163 163 168 171 172 174 176 177 175 172 171 174 178 180 184 189 192 195 198 202 210 216 217 238 286 293 293 299 314 339 351 1 17 33 33 29 36 38 33 36 46 60 67 71 78 83 85 85 81 80 83 84 80 84 88 85 91 93 93 99 103 106 101 98 97 96 97 91 86 79 74 70 66 66 66 70 72 71 71 69 68 65
183 177 175 172 170 174 178 177 175 174 174 174 175 176 180 185 186 190 193 197 199 199 205 211 207 203 220 278 287 290 298 311 328 343 7 35 42 34 33 45 56 67 65 82 88 80 74 75 74 77 79 77 75 76 85 86 87 92 93 101 104 106 112 112 110 106 104 100 95 93 89 84 80 79 77 73 76 78 77 76 76 76 76 76 73
187 184 185 183 181 181 180 176 173 172 173 175 179 181 186 191 192 194 197 199 202 200 204 207 207 214 232 256 272 280 290 300 310 330 24 54 48 52 63 67 76 95 99 103 105 98 85 78 73 75 79 79 85 89 98 105 104 106 109 112 110 107 107 101 98 97 99 98 93 88 86 86 84 85 85 83 83 84 83 82 83 83 83 83 81
189 191 192 189 188 184 176 171 169 170 174 177 181 185 190 194 195 197 198 200 204 204 203 208 220 235 239 246 256 265 276 277 266 272 44 68 79 82 81 85 91 101 112 119 118 104 87 75 66 66 78 88 95 99 103 107 108 107 103 102 100 98 95 94 95 97 99 99 96 93 89 88 86 88 89 87 86 86 87 89 89 88 86 85 84
189 193 195 191 189 182 173 168 171 175 177 179 182 187 192 195 196 198 201 202 203 203 204 216 230 235 234 242 248 254 262 252 234 218 200 124 107 98 108 120 127 139 136 128 117 98 78 62 55 56 74 87 93 97 99 104 108 108 107 105 103 101 100 102 103 104 104 100 97 94 91 88 88 90 90 89 89 89 88 89 89 87 85 84 82
193 196 198 196 189 179 173 171 173 176 177 178 180 184 189 192 193 196 199 199 199 200 208 225 232 228 225 234 241 245 247 236 221 200 183 155 136 133 134 141 150 158 150 135 123 106 81 56 57 68 86 94 97 100 102 104 106 106 105 103 102 101 101 101 101 101 99 97 97 97 96 95 93 92 91 89 87 86 85 85 86 85 82 79 78
198 201 201 202 195 182 178 179 176 171 170 174 176 177 185 190 189 192 193 194 200 207 215 223 225 223 221 226 232 230 221 217 214 194 178 171 165 148 137 138 142 158 158 152 147 126 108 87 83 89 95 99 100 100 100 99 98 98 98 97 96 97 97 97 98 98 98 97 98 99 98 97 96 93 90 88 86 85 85 86 85 84 81 78 76
201 203 202 205 201 189 184 187 184 174 171 177 182 183 190 195 193 194 196 199 207 212 214 215 216 215 212 212 210 204 202 206 207 196 182 179 169 155 150 147 141 145 151 158 158 143 136 123 108 99 96 98 100 99 98 97 96 95 93 94 95 95 94 93 93 94 95 95 94 95 95 95 94 93 92 92 91 89 88 88 87 84 82 80 76
204 202 202 204 202 194 191 195 193 189 189 189 192 191 193 197 195 196 199 205 210 208 206 207 205 203 200 198 191 186 196 205 203 198 197 193 180 175 180 183 169 159 153 164 167 159 160 148 133 119 105 101 102 101 101 100 97 94 91 91 92 93 90 87 87 87 88 88 89 92 95 96 95 94 94 94 93 92 90 88 86 83 80 78 75
207 204 204 205 204 200 199 204 203 205 209 204 199 194 192 198 202 203 200 201 206 205 206 207 199 196 195 191 185 183 189 202 207 204 211 219 210 206 209 203 186 169 165 185 186 175 177 168 159 153 134 119 114 110 108 104 97 90 88 86 84 86 88 88 87 87 89 88 89 91 95 96 95 95 94 94 95 95 94 90 85 81 77 74 71
210 206 208 209 207 205 206 210 212 215 216 211 205 200 198 202 208 207 198 191 195 201 205 207 201 195 192 185 181 188 192 202 211 211 221 231 229 234 230 212 189 176 182 201 198 186 189 187 180 179 166 148 140 133 128 123 114 91 78 81 79 79 84 89 90 93 95 95 93 92 95 95 94 95 94 94 97 98 96 90 83 76 70 66 62
212 208 212 213 211 211 211 213 215 217 219 217 212 208 208 211 211 206 198 192 189 192 198 202 199 190 186 186 185 190 195 202 207 209 220 227 230 246 239 213 191 191 196 204 204 188 187 193 193 193 184 174 174 163 160 174 181 187 179 137 102 82 84 83 83 88 91 95 96 92 93 97 95 94 94 95 96 94 87 77 70 64 57 54 53
217 213 214 214 213 215 216 216 215 214 217 220 218 214 214 216 212 202 199 200 192 186 191 198 195 187 184 185 185 187 192 199 199 206 224 226 223 239 237 215 201 204 200 195 200 186 183 189 196 205 198 190 192 168 162 187 203 216 212 183 171 195 155 108 87 82 82 89 95 93 94 97 96 95 93 92 88 76 64 57 54 54 51 48 51
220 218 215 214 214 217 219 218 216 215 217 218 216 214 213 212 208 200 193 198 199 191 191 193 193 195 191 178 174 180 190 198 196 204 219 219 215 220 225 214 205 203 197 189 187 188 190 191 200 210 205 202 200 187 179 201 217 228 226 203 193 203 202 178 111 88 85 88 95 93 96 100 96 98 97 89 77 59 47 43 41 44 48 46 50
220 216 215 216 216 220 221 219 219 218 218 217 214 211 211 208 205 203 192 187 194 194 194 197 196 200 192 174 176 185 190 201 202 204 208 207 207 208 209 202 196 197 194 187 188 200 209 203 204 204 203 209 209 214 220 201 213 232 238 229 212 204 203 202 152 115 86 66 81 80 88 116 104 97 96 77 55 50 47 46 47 50 52 53 55
225 216 214 216 217 220 218 217 220 220 219 218 218 216 214 210 204 203 198 189 189 186 191 200 201 203 196 180 181 187 193 203 205 207 206 203 207 208 200 189 188 195 195 190 192 205 219 212 204 202 203 211 214 225 223 202 219 254 254 248 231 210 192 186 181 166 136 31 48 61 84 148 132 116 105 63 41 53 59 57 60 63 64 65 64
228 218 215 215 216 216 215 217 220 219 216 219 224 223 218 214 207 201 199 200 198 189 190 197 199 208 216 203 186 193 209 207 201 208 207 199 202 204 199 189 189 199 200 196 196 203 210 201 201 204 200 207 217 222 226 225 241 261 267 264 249 220 181 171 169 148 139 36 325 306 213 178 152 143 117 57 60 79 83 78 70 71 70 65 61
224 218 215 216 215 212 212 217 219 217 218 221 221 219 214 210 207 203 199 203 209 205 201 198 196 202 217 228 229 236 234 209 199 199 192 190 195 197 197 193 194 203 203 199 198 198 196 193 201 207 204 209 218 231 243 245 255 268 268 263 239 203 155 142 126 106 103 30 326 253 175 172 158 148 116 93 102 103 103 98 76 62 60 52 48
218 213 213 214 213 211 214 217 216 214 217 218 214 212 211 206 204 205 201 201 206 214 214 205 200 199 206 220 234 249 270 230 212 204 190 188 192 192 191 192 196 201 203 200 197 195 195 201 212 213 221 228 227 247 259 244 256 271 234 155 173 171 133 120 118 112 106 86 83 106 130 148 153 147 137 128 125 117 111 99 66 50 46 39 34
214 210 210 211 209 209 212 213 210 209 210 211 209 207 206 203 202 203 203 206 207 213 218 214 208 204 203 212 225 233 257 274 242 231 215 189 187 193 186 189 199 195 193 192 190 194 199 213 231 225 226 231 232 246 249 219 218 161 118 110 126 142 131 128 128 125 121 110 106 110 122 138 142 142 143 143 138 123 102 75 50 35 25 16 8
211 209 208 208 206 205 206 205 204 204 204 204 205 204 203 203 202 199 200 205 209 212 216 220 220 216 209 211 221 229 243 258 234 232 235 202 193 196 185 186 198 191 186 185 183 191 202 212 226 226 230 227 221 222 205 184 176 142 117 109 118 132 134 136 127 114 120 120 116 118 123 126 128 133 138 138 133 115 64 15 358 354 351 349 351
211 206 205 204 203 203 202 200 199 200 200 201 201 202 203 205 203 201 203 205 210 213 212 218 225 228 221 216 221 226 234 241 222 220 231 223 211 200 186 187 194 189 186 185 184 190 193 194 194 199 215 214 202 199 183 173 171 153 130 120 123 130 131 129 120 111 112 112 113 119 118 115 120 129 132 132 134 173 308 317 326 336 345 353 2
212 206 203 201 198 199 198 196 197 198 199 199 200 202 203 205 205 205 207 211 214 214 213 215 223 232 231 225 226 232 243 251 239 230 230 227 222 205 189 190 195 193 187 181 183 186 173 167 169 168 176 180 183 185 176 172 174 165 148 136 133 132 128 120 111 105 99 96 108 120 122 126 135 142 144 156 191 299 320 338 352 2 9 12 14
210 204 200 196 193 195 196 194 196 197 198 200 202 204 204 204 207 208 210 215 216 216 217 215 218 228 232 231 231 237 252 260 255 254 246 235 233 213 190 186 192 192 185 176 176 172 159 157 160 160 165 170 174 176 174 177 187 185 168 150 138 125 111 95 79 70 67 75 92 104 120 141 143 143 139 119 78 40 25 20 22 22 21 19 15
205 200 197 194 194 196 197 196 197 196 196 200 201 202 203 204 207 209 212 215 216 217 220 220 220 224 229 233 236 236 246 251 248 255 250 233 231 217 191 183 189 187 180 177 172 164 159 158 159 165 174 176 175 175 176 187 204 196 179 159 136 112 82 45 14 355 350 13 82 94 104 107 99 96 87 76 70 59 47 36 28 25 23 19 16
207 203 199 197 197 198 198 197 196 195 195 199 200 200 203 205 207 209 212 214 216 217 220 223 224 224 228 234 237 237 238 239 239 247 243 226 225 217 192 179 185 188 181 178 175 168 164 163 163 163 167 175 178 178 183 198 206 195 184 165 136 99 24 326 292 269 261 247 146 116 103 97 90 86 82 79 77 71 61 47 32 22 16 14 15
209 208 203 201 199 197 198 197 196 197 197 200 201 202 202 203 206 208 211 211 213 216 218 222 224 224 229 233 236 236 233 232 233 238 238 229 228 220 201 184 180 186 187 183 181 179 171 166 166 159 159 170 178 181 187 200 200 194 192 173 148 353 317 286 253 232 208 166 134 119 108 103 101 98 97 94 88 79 61 39 23 10 7 9 12
208 208 205 203 201 198 199 199 198 199 201 203 203 204 203 203 205 208 210 211 213 216 217 219 220 221 227 232 232 231 231 232 231 233 232 227 227 222 215 210 198 188 188 189 190 186 176 166 166 158 155 164 173 179 187 194 196 199 199 188 215 281 285 254 220 199 174 153 140 133 125 121 120 119 115 106 86 60 36 21 12 7 6 6 7
205 206 208 207 202 201 201 201 200 200 203 205 204 207 207 206 208 210 213 213 214 217 216 216 217 217 222 228 228 226 229 231 231 231 226 220 224 222 221 228 231 217 199 196 196 190 175 161 157 153 151 161 168 176 186 189 193 205 208 222 266 266 249 231 210 194 181 171 168 169 166 163 154 142 124 100 62 35 26 17 13 9 6 4 2
203 205 211 210 202 201 202 202 202 200 201 204 204 207 209 209 210 214 217 217 216 216 215 215 217 217 219 222 223 223 224 226 228 229 220 215 223 224 225 229 230 245 253 205 192 183 173 161 151 146 147 175 180 178 187 198 199 205 218 249 268 251 224 220 212 204 202 201 206 207 201 191 179 162 123 54 25 17 12 9 9 8 5 2 359
204 206 212 211 204 202 202 203 203 201 201 205 205 205 207 209 212 215 217 215 215 216 215 216 217 217 216 216 218 219 218 219 222 221 214 213 224 223 224 229 222 228 291 183 171 167 169 167 155 147 145 207 210 194 192 204 206 209 229 253 258 242 220 218 220 219 218 218 220 219 215 212 210 213 257 348 353 356 357 359 2 3 3 360 355
204 207 215 215 209 203 201 203 204 202 201 204 205 204 205 208 212 216 215 212 214 216 215 215 215 213 211 211 214 215 215 217 219 220 213 211 220 221 222 225 217 213 213 155 152 148 159 167 174 184 181 205 218 210 202 208 214 221 237 249 249 236 223 223 227 229 229 231 235 237 239 240 241 248 261 286 311 328 338 347 354 357 356 353 349
205 208 216 219 214 210 206 205 204 203 202 203 204 204 204 205 209 212 211 210 214 215 213 212 213 211 210 210 211 211 214 218 218 218 214 208 209 211 216 216 210 210 222 215 201 181 173 173 181 199 214 217 215 215 213 213 219 230 240 246 247 240 233 233 236 236 238 242 250 255 257 257 256 257 263 276 292 310 325 333 340 341 341 338 336
205 208 216 219 217 216 211 204 204 203 202 202 203 204 203 204 208 210 209 210 213 214 212 213 214 213 210 208 208 209 212 216 218 214 208 205 203 200 204 208 206 212 226 236 242 238 220 205 192 198 215 223 222 225 224 220 220 230 244 254 256 250 245 243 243 242 244 251 258 263 264 263 261 260 263 272 285 298 309 315 318 319 319 318 318
204 208 215 216 214 214 210 204 204 204 201 201 202 203 203 204 208 208 207 209 212 214 215 215 215 214 209 204 205 208 210 214 217 214 206 204 202 200 204 209 212 218 227 240 252 255 249 239 226 219 222 226 234 236 227 222 221 226 239 253 257 251 246 246 247 246 248 256 262 266 267 261 254 254 258 267 276 285 291 296 298 301 302 303 303
204 207 209 209 207 206 206 205 204 201 198 198 199 201 202 203 204 205 204 205 208 212 216 216 215 212 207 202 202 206 211 215 217 216 214 212 205 202 208 215 219 225 233 244 253 258 260 253 243 244 241 230 235 239 221 215 220 223 225 231 238 239 240 245 249 250 250 256 263 264 258 249 244 247 252 258 264 270 276 282 286 290 293 294 294
205 206 202 203 203 201 201 202 200 195 193 195 196 197 198 197 197 197 196 196 195 197 207 213 214 214 211 206 204 205 212 217 219 218 214 211 204 200 205 213 221 234 243 250 254 257 258 254 249 251 247 231 229 234 224 213 219 225 225 231 236 239 245 250 254 256 253 257 265 262 251 243 243 248 252 255 260 264 269 273 277 281 284 286 288
203 203 203 203 199 197 197 197 195 191 186 186 186 185 186 185 186 187 187 186 183 185 201 209 212 213 211 208 204 204 211 218 218 211 202 198 199 199 204 212 223 239 249 251 253 253 248 243 245 249 250 243 232 228 229 225 230 238 244 249 251 255 260 263 266 268 264 264 268 266 260 255 254 256 257 260 262 265 269 271 273 275 277 279 281
202 202 205 202 196 195 196 193 190 187 183 180 180 181 183 184 187 190 189 187 184 189 202 206 211 215 213 209 205 202 203 206 202 196 192 197 200 201 209 218 223 232 240 236 236 237 233 230 234 239 243 246 238 234 239 241 243 249 254 259 262 266 270 272 274 276 275 275 276 275 273 271 268 267 267 268 268 268 270 272 274 275 276 277 278
202 204 203 198 195 195 193 189 187 187 184 181 181 185 187 189 193 193 189 185 181 186 198 202 209 218 215 211 211 204 193 184 183 187 190 197 202 203 208 213 216 220 223 221 224 229 229 228 232 239 240 238 234 238 246 250 254 260 263 266 270 274 278 280 281 281 282 281 280 279 279 278 276 276 275 274 273 273 273 275 276 277 278 278 279
200 203 199 196 195 190 187 187 188 188 187 184 185 189 189 189 191 189 186 183 180 186 197 199 200 207 208 208 210 200 180 165 171 183 185 191 200 206 206 204 208 214 213 219 229 233 232 232 235 241 242 240 240 245 253 261 270 276 277 275 276 281 285 285 283 282 282 280 278 277 276 278 279 278 276 275 274 275 276 276 276 278 279 280 281
197 196 193 190 188 185 185 188 189 189 188 187 188 192 192 190 189 189 189 187 187 193 198 199 199 198 194 191 186 177 164 160 168 176 182 187 185 188 193 193 197 203 204 211 221 227 234 239 240 241 243 246 250 252 257 263 270 275 277 277 279 282 284 284 282 278 275 276 277 275 273 275 277 276 274 274 274 275 276 276 277 278 279 280 281
196 190 189 185 182 182 185 188 190 190 190 189 190 195 198 195 191 193 196 194 193 197 197 194 191 182 174 168 161 157 158 164 169 172 177 181 176 176 184 186 188 192 197 204 212 220 230 238 243 247 249 251 253 253 256 259 260 264 268 270 274 276 279 281 280 276 273 274 276 275 272 272 274 274 273 274 274 274 275 275 275 276 277 278 279
195 187 188 186 181 182 184 186 188 189 190 191 191 195 201 200 198 198 201 199 194 193 195 192 184 173 166 164 162 163 167 171 173 176 179 178 179 183 187 190 195 201 205 212 217 220 225 232 240 245 247 248 253 256 259 260 259 262 265 266 269 272 275 277 277 277 278 279 279 278 276 275 275 276 277 276 276 275 274 273 272 271 271 271 273
195 186 188 188 183 183 185 186 188 187 187 190 190 191 197 202 202 201 201 199 193 189 191 191 187 181 177 179 180 178 179 181 182 186 192 194 193 191 194 198 203 212 220 227 232 232 233 239 245 249 249 250 256 262 263 264 265 268 273 275 276 278 281 281 282 283 285 286 286 285 283 283 284 283 283 285 287 285 282 279 276 273 271 269 269
194 186 189 189 185 185 187 187 188 185 185 189 190 189 193 194 194 194 195 194 192 190 189 187 187 187 188 192 194 193 191 190 191 195 203 211 210 207 210 211 210 214 223 230 238 244 250 258 265 270 270 267 266 268 269 271 274 276 278 280 280 282 283 284 286 289 290 291 290 288 287 289 290 289 291 295 296 293 291 287 282 280 279 276 275
190 188 190 191 190 189 189 189 189 186 185 188 188 188 192 191 188 188 190 193 195 196 195 194 194 193 194 197 198 198 198 197 202 209 212 218 222 221 222 223 219 222 230 237 248 256 262 268 271 275 278 278 277 278 280 283 285 286 287 287 288 288 289 289 290 293 295 294 290 288 288 291 293 294 297 299 295 291 290 288 284 285 287 285 284
188 190 190 192 193 191 190 191 191 189 186 186 187 188 192 196 194 192 191 191 195 197 197 198 199 199 199 200 201 203 205 205 210 213 208 206 215 218 216 221 230 243 262 274 281 281 279 279 279 281 283 284 285 286 288 289 290 290 291 291 292 292 293 294 295 297 299 297 291 287 288 292 295 296 299 300 295 292 290 288 286 287 289 290 291
189 189 186 190 191 189 191 192 192 191 187 185 188 190 193 197 198 196 195 195 197 198 197 197 198 198 198 198 200 204 205 206 208 207 199 197 207 217 222 235 252 266 279 289 295 296 292 289 287 286 285 286 287 288 289 290 291 291 291 291 291 291 292 294 295 296 296 294 290 288 288 292 295 297 298 299 298 296 294 289 286 284 284 286 287
187 185 181 184 186 185 187 189 188 189 186 182 185 190 192 195 197 197 200 204 205 203 200 199 198 199 200 199 198 200 201 203 201 199 204 217 229 238 245 254 264 271 277 283 289 292 291 289 287 286 286 287 288 289 290 291 291 290 290 289 289 288 289 290 292 292 292 289 288 288 289 292 296 299 300 299 297 295 295 293 290 289 289 290 291
184 183 179 181 182 181 182 184 184 185 183 178 179 183 185 187 191 197 203 207 209 204 199 196 191 188 191 194 195 197 199 202 202 204 217 231 238 245 250 254 260 267 274 281 286 287 286 284 282 281 281 283 285 287 287 288 288 289 290 291 291 292 291 292 292 292 291 290 287 286 286 289 293 297 301 304 303 300 299 300 300 300 301 301 300
Height
1544 1544 1544 1544 1545 1545 1546 1546 1545 1546 1547 1548 1550 1551 1552 1554 1554 1555 1556 1558 1559 1559 1559 1560 1561 1561 1562 1562 1562 1562 1562 1563 1563 1564 1564 1564 1564 1564 1564 1565 1564 1564 1564 1564 1564 1564 1564 1564 1563 1563 1563 1563 1563 1563 1563 1563 1563 1563 1563 1562 1562 1562 1562 1562 1562 1561 1561 1561 1561 1561 1561 1560 1560 1560 1559 1559 1559 1558 1558 1557 1557 1556 1556 1556 1555
1545 1545 1545 1545 1545 1546 1546 1546 1546 1546 1547 1548 1549 1551 1552 1553 1554 1555 1556 1557 1558 1559 1559 1560 1561 1561 1562 1562 1562 1562 1562 1563 1564 1564 1564 1564 1564 1564 1565 1565 1565 1565 1565 1564 1564 1564 1564 1564 1564 1564 1564 1564 1564 1564 1564 1563 1563 1563 1563 1563 1563 1563 1562 1562 1562 1562 1562 1562 1562 1561 1561 1561 1561 1560 1560 1560 1559 1559 1558 1558 1558 1557 1557 1556 1556
1545 1545 1545 1545 1546 1546 1546 1546 1546 1546 1547 1548 1549 1550 1551 1552 1553 1554 1556 1557 1558 1559 1559 1560 1561 1561 1562 1563 1562 1562 1563 1563 1564 1564 1564 1564 1564 1565 1565 1565 1565 1565 1565 1565 1565 1565 1565 1565 1565 1564 1564 1564 1564 1564 1564 1563 1563 1563 1563 1563 1563 1563 1563 1563 1563 1563 1563 1562 1562 1562 1562 1562 1561 1561 1561 1560 1560 1559 1559 1559 1558 1558 1557 1557 1557
1545 1545 1546 1546 1546 1546 1547 1547 1547 1546 1547 1548 1549 1550 1551 1552 1553 1554 1555 1556 1557 1558 1559 1560 1561 1562 1562 1562 1563 1563 1563 1564 1564 1564 1564 1565 1565 1565 1565 1565 1565 1565 1565 1565 1566 1566 1566 1566 1565 1565 1565 1564 1564 1564 1564 1564 1564 1564 1564 1564 1564 1564 1564 1564 1564 1563 1563 1563 1563 1563 1562 1562 1562 1562 1561 1561 1561 1560 1560 1560 1559 1559 1558 1558 1558
1544 1545 1546 1546 1546 1547 1547 1548 1547 1547 1547 1548 1549 1550 1551 1552 1553 1554 1555 1556 1557 1558 1559 1560 1561 1562 1562 1562 1563 1563 1564 1564 1564 1564 1565 1565 1565 1565 1565 1565 1565 1565 1566 1566 1567 1567 1566 1566 1566 1566 1565 1565 1565 1565 1565 1565 1565 1565 1565 1565 1565 1564 1564 1564 1564 1564 1564 1564 1563 1563 1563 1563 1563 1562 1562 1562 1561 1561 1561 1561 1560 1560 1560 1559 1559
1544 1545 1545 1546 1546 1547 1548 1548 1548 1548 1548 1549 1550 1551 1551 1552 1554 1554 1555 1556 1557 1558 1559 1560 1561 1562 1562 1562 1563 1563 1564 1564 1564 1565 1565 1565 1565 1565 1565 1565 1566 1566 1566 1567 1567 1567 1567 1567 1567 1567 1566 1566 1566 1565 1565 1565 1565 1565 1565 1565 1565 1565 1565 1565 1565 1565 1565 1564 1564 1564 1564 1564 1563 1563 1563 1563 1563 1562 1562 1562 1562 1562 1561 1561 1561
1543 1544 1545 1546 1546 1547 1548 1548 1548 1549 1549 1550 1550 1551 1552 1552 1553 1554 1555 1556 1557 1558 1559 1560 1561 1561 1561 1562 1562 1563 1564 1564 1564 1565 1565 1566 1566 1566 1566 1566 1566 1567 1567 1567 1568 1568 1568 1568 1568 1568 1567 1567 1567 1566 1566 1567 1567 1567 1567 1566 1566 1566 1566 1566 1566 1566 1566 1565 1565 1565 1565 1565 1565 1564 1564 1564 1564 1564 1564 1563 1563 1563 1563 1563 1563
1542 1543 1544 1545 1546 1547 1547 1548 1548 1549 1550 1550 1550 1551 1551 1552 1553 1554 1555 1556 1556 1557 1558 1559 1560 1560 1561 1561 1562 1563 1564 1564 1565 1565 1566 1566 1566 1566 1566 1567 1567 1567 1568 1568 1568 1568 1569 1569 1569 1569 1569 1568 1568 1568 1568 1568 1568 1568 1568 1568 1568 1568 1567 1567 1567 1567 1567 1567 1566 1566 1566 1566 1566 1566 1566 1565 1565 1565 1565 1565 1565 1564 1564 1564 1564
1542 1542 1543 1544 1545 1546 1547 1547 1548 1549 1550 1550 1550 1551 1551 1552 1552 1553 1554 1555 1556 1557 1557 1558 1559 1560 1560 1561 1562 1563 1564 1565 1565 1566 1566 1567 1567 1567 1567 1567 1567 1568 1568 1569 1569 1569 1569 1569 1570 1570 1570 1570 1569 1569 1569 1570 1570 1570 1570 1569 1569 1569 1569 1569 1569 1568 1568 1568 1568 1567 1567 1567 1567 1567 1567 1567 1567 1567 1567 1566 1566 1566 1566 1566 1566
1541 1542 1543 1544 1545 1545 1546 1547 1548 1549 1550 1550 1550 1550 1551 1552 1552 1553 1554 1555 1556 1556 1556 1557 1558 1559 1560 1561 1562 1564 1564 1565 1565 1566 1567 1567 1567 1567 1567 1568 1568 1569 1569 1569 1570 1570 1570 1570 1570 1570 1571 1570 1570 1570 1570 1571 1571 1571 1571 1571 1571 1570 1570 1570 1570 1570 1569 1569 1569 1569 1569 1568 1568 1568 1568 1568 1568 1568 1568 1568 1568 1568 1567 1567 1567
1539 1540 1542 1543 1543 1545 1545 1546 1547 1548 1549 1549 1550 1550 1550 1551 1552 1553 1553 1554 1555 1555 1555 1557 1558 1559 1559 1561 1562 1564 1565 1565 1566 1566 1567 1567 1567 1567 1568 1568 1569 1569 1569 1570 1570 1571 1571 1571 1571 1571 1571 1571 1571 1571 1571 1571 1571 1572 1572 1572 1572 1572 1571 1571 1571 1571 1570 1570 1570 1570 1570 1570 1570 1569 1569 1569 1569 1569 1569 1569 1569 1569 1569 1569 1568
1537 1539 1541 1542 1543 1544 1545 1546 1547 1547 1548 1549 1549 1550 1550 1551 1552 1553 1553 1553 1554 1554 1555 1556 1558 1558 1559 1561 1562 1564 1565 1565 1566 1566 1567 1567 1567 1568 1568 1569 1569 1569 1570 1570 1570 1571 1571 1571 1571 1572 1572 1572 1572 1572 1572 1572 1572 1572 1573 1573 1573 1573 1572 1572 1572 1572 1571 1571 1571 1572 1571 1571 1571 1571 1571 1571 1571 1571 1571 1571 1570 1570 1570 1570 1569
1535 1537 1539 1540 1541 1543 1544 1545 1546 1547 1547 1548 1549 1549 1550 1551 1551 1552 1553 1553 1553 1553 1554 1555 1557 1558 1559 1561 1562 1564 1564 1565 1566 1566 1567 1567 1567 1568 1568 1569 1570 1570 1570 1570 1570 1571 1571 1572 1572 1572 1572 1572 1572 1572 1572 1572 1572 1572 1573 1573 1573 1573 1573 1573 1573 1573 1572 1572 1572 1573 1573 1572 1572 1572 1572 1572 1572 1572 1572 1572 1572 1571 1571 1571 1570
1535 1536 1538 1539 1541 1542 1543 1544 1545 1546 1547 1547 1548 1549 1549 1550 1551 1552 1552 1552 1552 1552 1553 1554 1556 1557 1558 1561 1562 1563 1564 1564 1565 1566 1566 1567 1567 1567 1568 1568 1569 1570 1570 1571 1571 1571 1571 1572 1572 1572 1572 1572 1572 1572 1572 1572 1572 1572 1572 1573 1573 1573 1573 1573 1573 1573 1573 1573 1573 1573 1573 1573 1573 1573 1573 1573 1573 1573 1573 1573 1573 1572 1572 1572 1571
1534 1536 1537 1539 1540 1541 1542 1543 1544 1545 1546 1546 1546 1548 1549 1549 1550 1551 1551 1551 1552 1552 1552 1554 1555 1556 1558 1561 1562 1563 1564 1564 1564 1565 1565 1566 1566 1567 1567 1568 1569 1569 1570 1571 1571 1571 1572 1572 1572 1572 1572 1572 1573 1573 1573 1573 1572 1572 1572 1573 1573 1573 1573 1573 1573 1574 1574 1574 1574 1574 1574 1574 1574 1574 1574 1574 1574 1574 1574 1573 1573 1573 1573 1573 1572
1533 1535 1536 1538 1539 1540 1541 1542 1543 1544 1545 1545 1545 1547 1548 1549 1550 1550 1551 1551 1551 1551 1552 1553 1554 1556 1558 1560 1562 1563 1563 1563 1563 1564 1565 1565 1566 1566 1567 1567 1568 1569 1569 1570 1571 1571 1572 1572 1572 1572 1573 1573 1573 1573 1573 1573 1573 1572 1572 1573 1573 1573 1573 1573 1574 1574 1575 1575 1575 1575 1575 1575 1575 1575 1575 1575 1575 1575 1575 1574 1574 1574 1574 1573 1573
1533 1534 1536 1537 1538 1539 1540 1541 1542 1543 1544 1544 1545 1546 1547 1548 1548 1549 1550 1550 1550 1551 1551 1553 1555 1556 1558 1560 1561 1562 1562 1562 1563 1564 1564 1565 1565 1566 1566 1567 1568 1568 1569 1570 1571 1571 1572 1572 1572 1573 1573 1573 1573 1573 1573 1573 1573 1573 1573 1573 1573 1573 1573 1574 1574 1575 1575 1575 1575 1575 1575 1576 1576 1576 1576 1576 1576 1575 1575 1575 1575 1575 1574 1574 1574
1533 1535 1536 1537 1538 1538 1539 1540 1541 1542 1543 1543 1544 1545 1546 1547 1547 1548 1550 1550 1550 1551 1551 1553 1554 1556 1557 1559 1560 1560 1560 1561 1563 1564 1564 1565 1565 1566 1566 1567 1568 1568 1569 1570 1571 1571 1572 1572 1573 1573 1573 1573 1573 1573 1573 1573 1573 1573 1573 1573 1573 1573 1574 1574 1575 1575 1576 1576 1575 1575 1576 1576 1576 1576 1577 1577 1576 1576 1576 1576 1576 1576 1575 1575 1575
1533 1534 1535 1536 1537 1537 1538 1539 1540 1541 1541 1542 1543 1544 1545 1546 1547 1548 1549 1550 1550 1550 1551 1553 1554 1555 1557 1558 1559 1559 1559 1560 1562 1563 1564 1564 1565 1566 1566 1567 1568 1568 1569 1570 1570 1571 1572 1572 1573 1573 1573 1573 1573 1573 1573 1574 1574 1574 1574 1574 1574 1575 1575 1575 1576 1576 1577 1577 1576 1576 1576 1576 1577 1577 1577 1577 1577 1577 1577 1577 1577 1576 1576 1576 1576
1533 1534 1534 1535 1536 1536 1537 1538 1538 1539 1540 1541 1542 1543 1544 1545 1546 1547 1548 1549 1550 1550 1551 1552 1553 1554 1556 1557 1558 1559 1559 1560 1561 1562 1563 1563 1565 1565 1566 1567 1567 1568 1569 1569 1570 1571 1571 1572 1572 1572 1573 1573 1573 1573 1574 1574 1574 1575 1575 1575 1575 1576 1576 1576 1577 1577 1577 1577 1577 1577 1577 1576 1576 1576 1577 1577 1577 1577 1577 1577 1577 1577 1577 1576 1576
1532 1533 1533 1534 1535 1535 1536 1537 1537 1539 1540 1541 1542 1542 1543 1544 1545 1546 1547 1548 1549 1550 1551 1552 1553 1554 1555 1556 1557 1558 1559 1560 1560 1562 1562 1563 1564 1564 1565 1566 1567 1567 1568 1569 1570 1570 1570 1571 1571 1572 1572 1572 1573 1573 1574 1574 1575 1575 1575 1576 1576 1576 1577 1577 1577 1577 1578 1578 1577 1577 1577 1576 1576 1577 1577 1578 1578 1578 1578 1578 1578 1577 1577 1577 1577
1531 1532 1532 1533 1533 1534 1535 1536 1537 1538 1539 1540 1541 1541 1542 1543 1544 1545 1547 1548 1549 1550 1551 1552 1553 1554 1555 1556 1557 1557 1558 1559 1559 1560 1561 1562 1563 1564 1565 1565 1566 1567 1568 1568 1569 1569 1569 1570 1571 1571 1572 1572 1573 1573 1574 1575 1575 1576 1576 1576 1577 1577 1578 1578 1578 1578 1578 1578 1578 1578 1577 1577 1577 1578 1578 1578 1578 1578 1578 1578 1578 1578 1578 1578 1578
1530 1530 1531 1532 1532 1533 1534 1535 1536 1538 1539 1539 1540 1540 1541 1542 1543 1545 1546 1547 1548 1549 1550 1551 1552 1554 1555 1555 1556 1556 1557 1558 1559 1560 1561 1561 1562 1563 1564 1566 1566 1567 1568 1568 1569 1569 1569 1570 1570 1571 1571 1571 1572 1573 1574 1575 1575 1576 1577 1577 1577 1578 1578 1578 1578 1578 1578 1578 1578 1578 1578 1578 1578 1578 1578 1578 1579 1579 1579 1579 1579 1579 1579 1579 1578
1529 1529 1530 1530 1531 1532 1533 1534 1535 1536 1538 1539 1539 1540 1541 1542 1543 1544 1546 1547 1548 1549 1549 1550 1551 1552 1554 1555 1555 1556 1557 1558 1559 1560 1561 1561 1562 1563 1564 1565 1567 1568 1568 1569 1569 1569 1570 1570 1570 1571 1571 1571 1572 1573 1574 1575 1575 1576 1577 1577 1578 1578 1578 1579 1579 1579 1579 1579 1579 1578 1579 1579 1579 1579 1579 1579 1579 1579 1580 1580 1579 1579 1579 1579 1579
1527 1528 1528 1529 1530 1531 1532 1533 1534 1535 1537 1538 1539 1540 1541 1542 1543 1544 1545 1546 1547 1548 1549 1549 1551 1552 1553 1554 1555 1556 1557 1558 1559 1560 1561 1561 1562 1563 1564 1566 1567 1568 1569 1569 1569 1569 1570 1570 1570 1571 1571 1572 1572 1573 1574 1575 1576 1576 1577 1578 1578 1578 1579 1579 1579 1579 1579 1579 1579 1579 1579 1579 1579 1579 1579 1579 1579 1580 1580 1580 1580 1579 1579 1579 1579
1526 1527 1528 1529 1529 1530 1531 1532 1533 1534 1536 1537 1538 1539 1540 1541 1542 1543 1544 1545 1547 1547 1548 1549 1550 1551 1552 1554 1555 1556 1557 1557 1559 1560 1560 1561 1562 1563 1564 1565 1567 1568 1568 1569 1569 1569 1569 1570 1570 1571 1571 1572 1573 1573 1574 1575 1576 1577 1578 1578 1578 1579 1579 1579 1579 1579 1579 1579 1579 1579 1579 1580 1579 1579 1580 1579 1579 1579 1579 1579 1579 1579 1579 1579 1579
1526 1527 1527 1528 1528 1529 1530 1531 1532 1533 1535 1536 1537 1538 1539 1541 1542 1543 1544 1545 1546 1547 1548 1549 1549 1551 1552 1553 1554 1555 1556 1557 1558 1559 1560 1561 1562 1563 1563 1564 1566 1568 1568 1569 1569 1569 1570 1570 1570 1570 1571 1572 1573 1574 1575 1575 1576 1577 1578 1578 1579 1579 1579 1579 1579 1579 1580 1580 1580 1580 1580 1580 1580 1580 1580 1579 1579 1579 1579 1579 1579 1579 1579 1579 1579
1525 1526 1526 1527 1527 1528 1529 1530 1531 1532 1533 1535 1536 1537 1538 1539 1541 1542 1543 1544 1545 1546 1547 1548 1549 1550 1551 1552 1553 1554 1555 1556 1557 1559 1560 1561 1562 1563 1563 1564 1564 1566 1567 1568 1568 1569 1569 1570 1570 1571 1571 1572 1573 1574 1574 1575 1576 1577 1578 1578 1579 1579 1579 1579 1579 1580 1580 1580 1580 1580 1580 1580 1580 1580 1580 1579 1579 1579 1579 1579 1579 1579 1579 1579 1578
1523 1524 1525 1525 1526 1527 1528 1529 1530 1531 1533 1533 1535 1536 1537 1538 1539 1541 1542 1543 1544 1545 1546 1547 1548 1549 1551 1552 1553 1554 1555 1555 1556 1558 1559 1560 1561 1562 1564 1564 1564 1565 1565 1566 1567 1568 1569 1569 1570 1571 1571 1572 1573 1574 1574 1575 1576 1577 1578 1579 1579 1579 1579 1579 1580 1580 1580 1580 1580 1580 1580 1580 1580 1580 1580 1579 1579 1579 1579 1578 1578 1578 1578 1578 1578
1522 1523 1524 1524 1525 1526 1527 1528 1529 1530 1531 1532 1534 1535 1536 1537 1538 1540 1541 1542 1543 1544 1545 1546 1547 1548 1549 1551 1552 1553 1554 1555 1556 1557 1558 1560 1561 1562 1563 1564 1565 1565 1565 1565 1566 1568 1569 1569 1570 1571 1571 1572 1573 1573 1574 1575 1576 1577 1578 1579 1579 1579 1579 1579 1580 1580 1580 1580 1580 1580 1580 1580 1580 1580 1580 1579 1579 1579 1579 1578 1578 1578 1577 1577 1577
1521 1521 1522 1523 1524 1525 1525 1527 1528 1529 1530 1531 1533 1534 1535 1536 1537 1539 1540 1541 1542 1543 1544 1545 1546 1547 1548 1550 1551 1552 1553 1554 1555 1556 1558 1559 1560 1561 1563 1564 1565 1566 1566 1566 1566 1568 1569 1569 1570 1571 1571 1572 1573 1573 1574 1575 1576 1577 1578 1578 1579 1579 1579 1579 1580 1580 1580 1580 1580 1580 1580 1580 1580 1580 1580 1579 1579 1579 1579 1578 1578 1577 1577 1577 1577
1519 1520 1521 1522 1522 1523 1524 1525 1526 1527 1529 1530 1531 1533 1534 1535 1536 1538 1539 1540 1541 1542 1543 1544 1545 1546 1547 1549 1550 1551 1552 1553 1554 1556 1557 1558 1560 1561 1562 1563 1564 1566 1567 1567 1567 1568 1569 1569 1570 1571 1571 1572 1572 1573 1574 1575 1576 1577 1577 1578 1578 1578 1579 1579 1579 1580 1580 1580 1580 1580 1580 1579 1579 1580 1579 1579 1579 1579 1578 1578 1578 1577 1577 1576 1576
1517 1518 1520 1521 1522 1523 1524 1525 1525 1526 1528 1529 1530 1531 1533 1534 1535 1537 1538 1539 1540 1541 1542 1543 1544 1545 1547 1548 1549 1550 1551 1552 1553 1555 1556 1558 1559 1560 1561 1563 1564 1566 1567 1567 1568 1569 1569 1570 1570 1570 1571 1572 1572 1573 1574 1574 1575 1576 1577 1577 1578 1578 1578 1579 1579 1579 1579 1579 1579 1579 1579 1579 1579 1579 1579 1579 1579 1578 1578 1578 1577 1577 1577 1576 1576
1516 1517 1519 1520 1522 1523 1523 1524 1525 1526 1527 1528 1529 1530 1532 1533 1534 1536 1537 1538 1539 1540 1541 1543 1544 1545 1546 1547 1549 1550 1551 1552 1553 1554 1556 1557 1559 1560 1561 1563 1564 1566 1567 1567 1568 1569 1569 1570 1570 1570 1571 1571 1572 1572 1573 1574 1575 1576 1576 1577 1578 1578 1578 1578 1578 1579 1579 1579 1579 1579 1579 1579 1579 1579 1579 1579 1578 1578 1577 1577 1577 1576 1576 1576 1575
1515 1516 1518 1519 1521 1522 1523 1524 1525 1525 1526 1527 1528 1530 1531 1532 1533 1535 1536 1537 1538 1540 1541 1542 1544 1545 1546 1547 1548 1549 1550 1551 1552 1553 1555 1556 1558 1560 1561 1563 1564 1565 1566 1567 1567 1568 1569 1570 1570 1570 1570 1571 1572 1572 1573 1574 1574 1575 1576 1577 1577 1577 1577 1577 1577 1578 1578 1578 1578 1578 1578 1578 1578 1578 1578 1578 1577 1577 1576 1576 1575 1575 1575 1575 1574
1514 1515 1517 1518 1520 1521 1522 1523 1524 1524 1525 1526 1528 1529 1530 1531 1532 1534 1535 1536 1538 1539 1541 1542 1543 1544 1545 1547 1548 1549 1550 1550 1552 1553 1555 1556 1557 1559 1560 1562 1563 1564 1565 1566 1566 1567 1568 1569 1569 1569 1570 1570 1571 1572 1572 1573 1573 1574 1575 1576 1576 1576 1576 1576 1576 1577 1577 1577 1577 1577 1577 1577 1577 1577 1577 1577 1576 1576 1575 1575 1574 1574 1574 1573 1573
1514 1515 1516 1517 1518 1519 1521 1522 1523 1524 1525 1526 1527 1528 1529 1531 1532 1533 1534 1536 1537 1539 1540 1542 1543 1544 1546 1547 1548 1549 1550 1550 1552 1553 1554 1556 1557 1558 1559 1561 1562 1563 1564 1564 1565 1565 1567 1568 1569 1569 1569 1570 1570 1571 1571 1572 1573 1573 1574 1574 1575 1575 1575 1575 1575 1576 1576 1576 1576 1576 1576 1576 1576 1575 1575 1575 1574 1574 1574 1573 1573 1573 1572 1572 1572
1513 1514 1515 1515 1516 1518 1519 1520 1522 1523 1524 1525 1526 1528 1529 1530 1531 1533 1534 1536 1537 1539 1540 1541 1542 1544 1545 1546 1547 1549 1550 1551 1552 1553 1554 1555 1556 1557 1558 1560 1561 1562 1563 1563 1563 1564 1565 1567 1568 1569 1569 1569 1569 1570 1571 1571 1572 1572 1573 1573 1574 1574 1574 1574 1574 1575 1575 1575 1575 1575 1575 1575 1574 1574 1573 1573 1572 1572 1572 1571 1571 1571 1570 1570 1570
1511 1512 1513 1514 1515 1516 1517 1519 1521 1523 1524 1525 1526 1527 1529 1530 1531 1532 1534 1535 1537 1538 1539 1540 1541 1542 1543 1544 1545 1547 1549 1550 1552 1553 1554 1555 1556 1557 1558 1559 1560 1561 1562 1562 1563 1563 1564 1566 1567 1568 1568 1568 1568 1569 1570 1570 1571 1571 1571 1572 1572 1573 1573 1573 1573 1574 1574 1574 1574 1574 1574 1573 1573 1572 1572 1571 1570 1570 1570 1570 1569 1569 1568 1568 1568
1510 1511 1512 1513 1513 1514 1515 1517 1520 1523 1524 1525 1526 1527 1528 1529 1531 1532 1533 1535 1536 1537 1538 1539 1540 1541 1543 1544 1545 1547 1549 1550 1552 1554 1554 1555 1556 1557 1558 1558 1559 1560 1561 1561 1562 1563 1564 1565 1566 1567 1567 1567 1568 1568 1568 1569 1569 1570 1570 1570 1570 1571 1572 1572 1572 1573 1573 1573 1572 1572 1571 1571 1570 1570 1570 1569 1568 1568 1568 1567 1567 1566 1566 1565 1565
1508 1509 1511 1512 1512 1512 1514 1516 1519 1521 1523 1524 1526 1527 1528 1529 1530 1531 1533 1534 1536 1536 1537 1538 1539 1540 1542 1543 1545 1547 1549 1551 1553 1554 1554 1555 1556 1556 1557 1558 1559 1559 1560 1561 1561 1562 1564 1565 1566 1566 1566 1566 1567 1567 1567 1568 1568 1568 1569 1569 1569 1570 1570 1570 1570 1571 1571 1570 1570 1569 1569 1568 1568 1567 1567 1566 1565 1566 1565 1565 1564 1564 1563 1563 1562
1507 1508 1510 1511 1511 1512 1513 1515 1518 1520 1522 1524 1525 1526 1527 1528 1529 1531 1532 1534 1535 1536 1536 1537 1538 1539 1541 1543 1544 1546 1549 1551 1552 1553 1554 1555 1555 1556 1556 1557 1558 1559 1560 1561 1562 1562 1563 1564 1565 1565 1565 1566 1566 1566 1567 1567 1568 1568 1568 1568 1567 1568 1568 1567 1567 1569 1569 1568 1567 1566 1566 1566 1565 1564 1563 1562 1563 1563 1562 1561 1561 1561 1560 1560 1559
1506 1507 1509 1510 1511 1511 1513 1515 1517 1520 1522 1523 1524 1525 1527 1528 1529 1530 1532 1533 1534 1536 1536 1537 1538 1539 1541 1543 1544 1546 1548 1550 1551 1552 1553 1554 1555 1555 1556 1557 1557 1559 1560 1561 1562 1562 1563 1563 1563 1564 1564 1565 1565 1565 1565 1566 1566 1566 1566 1566 1565 1565 1565 1565 1564 1565 1566 1566 1565 1563 1563 1564 1562 1561 1561 1560 1560 1559 1558 1558 1558 1557 1556 1555 1555
1504 1506 1508 1509 1510 1511 1513 1515 1517 1519 1521 1522 1524 1525 1526 1527 1528 1530 1531 1533 1534 1535 1536 1537 1538 1540 1541 1543 1544 1546 1548 1549 1550 1551 1552 1553 1554 1555 1556 1556 1557 1558 1559 1560 1561 1562 1562 1563 1563 1563 1563 1563 1563 1563 1563 1563 1563 1564 1564 1564 1564 1563 1563 1563 1562 1562 1563 1563 1562 1560 1560 1561 1560 1558 1558 1558 1557 1556 1555 1554 1553 1552 1551 1550 1549
1502 1505 1507 1508 1510 1511 1512 1515 1517 1518 1520 1521 1523 1524 1525 1526 1528 1529 1531 1532 1534 1535 1536 1537 1539 1540 1541 1543 1544 1546 1547 1548 1550 1551 1552 1553 1554 1555 1555 1556 1557 1558 1559 1560 1560 1561 1561 1562 1562 1562 1563 1563 1562 1562 1562 1562 1562 1562 1562 1562 1562 1561 1560 1560 1560 1560 1561 1560 1559 1557 1556 1557 1557 1554 1553 1555 1555 1553 1552 1551 1549 1548 1547 1546 1545
1500 1503 1506 1507 1509 1510 1512 1514 1516 1518 1519 1521 1523 1524 1525 1526 1527 1529 1531 1532 1534 1535 1536 1538 1539 1540 1542 1543 1544 1546 1547 1548 1549 1550 1551 1552 1553 1554 1555 1556 1556 1557 1558 1559 1560 1560 1561 1561 1561 1561 1561 1561 1561 1561 1560 1560 1560 1560 1561 1560 1560 1559 1558 1558 1557 1558 1558 1557 1556 1554 1552 1553 1554 1551 1549 1551 1551 1549 1548 1547 1546 1546 1545 1544 1543
1499 1502 1504 1506 1507 1509 1511 1513 1515 1517 1518 1520 1522 1524 1525 1526 1527 1528 1530 1531 1533 1535 1536 1537 1539 1540 1542 1543 1544 1545 1546 1548 1549 1549 1550 1551 1552 1553 1554 1555 1556 1557 1558 1558 1559 1559 1560 1560 1559 1559 1559 1559 1559 1559 1559 1559 1558 1558 1558 1558 1557 1557 1555 1555 1555 1555 1555 1555 1554 1551 1549 1550 1550 1548 1547 1548 1547 1545 1544 1543 1543 1543 1542 1541 1541
1497 1500 1503 1505 1507 1508 1510 1512 1514 1516 1517 1519 1521 1523 1524 1526 1527 1528 1529 1531 1533 1534 1535 1537 1538 1540 1541 1543 1544 1545 1546 1547 1548 1549 1550 1551 1552 1552 1553 1554 1555 1556 1556 1557 1558 1558 1558 1558 1558 1558 1558 1558 1558 1557 1557 1557 1557 1556 1556 1555 1555 1554 1553 1552 1552 1553 1553 1552 1551 1549 1547 1547 1547 1545 1544 1544 1543 1542 1542 1541 1540 1539 1538 1537 1537
1496 1498 1500 1503 1506 1507 1509 1511 1513 1515 1517 1518 1520 1522 1523 1525 1526 1527 1529 1531 1533 1534 1535 1537 1538 1539 1540 1542 1543 1544 1545 1546 1547 1548 1549 1550 1551 1552 1552 1553 1554 1555 1555 1556 1556 1556 1556 1556 1556 1556 1556 1556 1556 1555 1555 1554 1554 1554 1553 1553 1553 1552 1551 1550 1550 1550 1550 1549 1548 1547 1545 1544 1543 1542 1541 1541 1540 1539 1539 1538 1537 1536 1535 1534 1533
1496 1498 1499 1502 1505 1507 1509 1511 1513 1514 1516 1518 1519 1521 1523 1524 1525 1527 1529 1531 1532 1534 1535 1536 1537 1539 1540 1541 1542 1543 1545 1546 1546 1547 1548 1549 1549 1550 1551 1552 1553 1554 1554 1555 1555 1555 1555 1554 1554 1554 1554 1554 1554 1553 1553 1552 1552 1551 1551 1550 1550 1549 1549 1548 1547 1547 1547 1546 1545 1544 1542 1541 1540 1539 1538 1537 1536 1536 1536 1535 1534 1533 1532 1531 1530
1497 1499 1500 1502 1504 1506 1509 1511 1512 1514 1515 1517 1519 1521 1522 1524 1525 1527 1528 1530 1531 1533 1534 1535 1536 1537 1539 1540 1541 1542 1544 1545 1546 1546 1547 1548 1548 1549 1550 1551 1551 1552 1553 1553 1553 1553 1553 1553 1553 1552 1552 1552 1552 1551 1551 1550 1549 1548 1548 1547 1547 1546 1546 1545 1545 1544 1543 1543 1542 1541 1540 1539 1538 1537 1536 1534 1533 1532 1532 1532 1531 1530 1529 1528 1527